User: anonymous   Login
Location: Czekan�w
(50.3488°N, 18.7344°E)
Time: 17:08:25
(UTC+00:00)
Language:

CZ-4 R/B - Orbit

View from above orbital plane
View from above orbital plane
View from above satellite
View from above satellite

Ground track
Ground track

The orbit data is extracted from the following two-line orbital elements,

1 29507U 06046C   20151.82121722 +.00000581 +00000-0 +49869-4 0  9997
2 29507 097.7597 173.7387 0047750 222.3286 137.4249 15.00643375742729
Epoch (UTC): 30 May 2020 19:42:33
Eccentricity: 0.0047750
inclination: 97.7597°
perigee height: 532 km
apogee height: 598 km
right ascension of ascending node: 173.7387°
argument of perigee: 222.3286°
revolutions per day: 15.00643375
mean anomaly at epoch: 137.4249°
orbit number at epoch: 74272

The dashed part of the orbit path shows where the satellite is in the earth's shadow,  

DLR